Wind from 092 at 0 knots gusting 6

Air temperature 26.1° C
Dewpoint 22.8° C

Last reported at 2014-Apr-16 23:43 UTC.
Time now 2014-Apr-17 00:57 UTC

Location: N 24°44' W 081°02'.
View on Google Maps.

See reports from other nearby stations

Tides Stations Pressure Air Temp Water Temp Dewpoint Dewpoint depression Visibility Wind Speed Wind Dir Waves Ship positions

  
sailing weather and tide predictions

CW4489 Marathon FL US weather

date/time (UTC)wind fromknots sea level pressurealtimeterstation pressurevisibilityair tempwater tempwave heightnotes
2014-Apr-16 23:43 092 0 gusting 6 26.1
2014-Apr-16 23:23 017 3 gusting 3 26.7
2014-Apr-16 23:13 078 0 gusting 5 26.7
2014-Apr-16 23:03 063 2 gusting 5 26.7
2014-Apr-16 22:53 096 1 gusting 3 26.7
2014-Apr-16 22:43 102 1 gusting 3 26.7
2014-Apr-16 22:33 063 6 gusting 6 26.7
2014-Apr-16 22:24 050 1 gusting 5 26.7
2014-Apr-16 21:54 102 27.2
2014-Apr-16 21:44 120 2 gusting 4 27.8
2014-Apr-16 21:34 130 2 gusting 5 28.3
2014-Apr-16 21:24 063 2 gusting 4 28.3
2014-Apr-16 20:54 084 2 gusting 5 27.8
2014-Apr-16 20:25 088 3 gusting 8 27.2
2014-Apr-16 20:15 081 3 gusting 5 27.2
2014-Apr-16 18:56 039 2 gusting 6 27.8
2014-Apr-16 18:46 032 5 gusting 6 27.8
2014-Apr-16 18:36 351 6 gusting 6 27.8
2014-Apr-16 18:26 040 3 gusting 6 28.3
2014-Apr-16 18:16 044 1 gusting 4 27.8
2014-Apr-16 18:06 014 3 gusting 6 27.8
2014-Apr-16 17:56 040 2 gusting 6 27.8
2014-Apr-16 17:47 034 1 gusting 7 27.8
2014-Apr-16 17:37 027 6 gusting 8 27.8
2014-Apr-16 17:27 005 6 gusting 7 27.8
2014-Apr-16 17:17 036 2 gusting 6 27.8
2014-Apr-16 17:07 018 4 gusting 8 27.2
2014-Apr-16 16:47 038 3 gusting 8 27.2
2014-Apr-16 16:37 034 2 gusting 8 27.2
2014-Apr-16 16:27 036 3 gusting 8 26.7
2014-Apr-16 16:18 017 8 gusting 8 27.2
2014-Apr-16 15:48 027 4 gusting 7 26.7
2014-Apr-16 15:38 044 6 gusting 8 26.7
2014-Apr-16 15:28 054 4 gusting 6 26.1
2014-Apr-16 15:08 013 3 gusting 8 25.6
2014-Apr-16 14:39 036 7 gusting 7 25.0
2014-Apr-16 14:19 005 1 gusting 7 24.4
2014-Apr-16 14:09 034 4 gusting 7 25.0
2014-Apr-16 13:09 022 2 gusting 6 25.0
2014-Apr-16 13:00 019 2 gusting 5 25.0
2014-Apr-16 12:40 345 5 gusting 7 25.0
2014-Apr-16 12:00 360 5 gusting 8 25.0
2014-Apr-16 11:40 336 2 gusting 6 25.0
2014-Apr-16 11:21 332 3 gusting 6 24.4
2014-Apr-16 11:11 336 2 gusting 6 24.4
2014-Apr-16 11:01 355 2 gusting 7 24.4
2014-Apr-16 10:51 347 2 gusting 6 24.4
2014-Apr-16 10:31 331 6 gusting 8 25.0
2014-Apr-16 10:01 302 2 gusting 8 25.0
2014-Apr-16 09:52 276 4 gusting 8 25.0
2014-Apr-16 09:42 346 4 gusting 6 25.6
2014-Apr-16 09:02 313 2 gusting 2 25.6
2014-Apr-16 08:03 305 3 gusting 3 25.6
2014-Apr-16 07:53 317 3 gusting 4 25.6
2014-Apr-16 07:33 309 4 gusting 4 25.6
2014-Apr-16 07:13 285 25.6
2014-Apr-16 06:04 263 1 gusting 1 26.1
2014-Apr-16 05:54 294 2 gusting 2 26.1
2014-Apr-16 05:44 298 1 gusting 1 26.1
2014-Apr-16 05:14 298 26.1
2014-Apr-16 04:55 298 2 gusting 2 25.6
2014-Apr-16 04:15 298 0 gusting 0 26.1
2014-Apr-16 04:05 298 26.1
2014-Apr-16 03:55 298 26.1
2014-Apr-16 03:45 298 26.1
2014-Apr-16 03:35 298 26.1
2014-Apr-16 03:16 298 26.1
2014-Apr-16 03:06 298 26.1
2014-Apr-16 02:56 298 26.1
2014-Apr-16 02:46 298 1 gusting 2 26.1
2014-Apr-16 02:36 298 2 gusting 3 26.1
2014-Apr-16 02:16 297 1 gusting 3 26.1
2014-Apr-16 01:56 296 2 gusting 2 26.7
2014-Apr-16 01:47 296 1 gusting 2 26.7
2014-Apr-16 01:27 296 26.7
2014-Apr-16 01:17 315 1 gusting 4 26.7
2014-Apr-16 00:57 304 2 gusting 5 26.7
2014-Apr-16 00:18 325 5 gusting 6 26.7
2014-Apr-16 00:08 328 3 gusting 6 26.7
2014-Apr-15 23:58 284 4 gusting 6 26.7
2014-Apr-15 23:38 314 2 gusting 7 27.2
2014-Apr-15 23:18 322 4 gusting 7 27.2
2014-Apr-15 22:48 324 2 gusting 7 28.3
2014-Apr-15 22:39 293 2 gusting 6 28.3
2014-Apr-15 22:09 276 1 gusting 5 28.9
2014-Apr-15 21:59 252 2 gusting 6 28.9
2014-Apr-15 21:49 207 2 gusting 4 28.9
2014-Apr-15 21:29 244 1 gusting 6 28.9
2014-Apr-15 21:19 295 0 gusting 6 28.9
2014-Apr-15 20:50 202 3 gusting 5 28.3
2014-Apr-15 20:40 229 6 gusting 6 28.3
2014-Apr-15 20:00 232 4 gusting 7 28.3
2014-Apr-15 19:50 263 4 gusting 6 28.3
2014-Apr-15 19:40 219 3 gusting 6 27.8
2014-Apr-15 19:21 221 6 gusting 7 28.3
2014-Apr-15 19:01 178 6 gusting 8 28.3
2014-Apr-15 18:51 212 5 gusting 8 28.3
2014-Apr-15 18:41 180 2 gusting 7 28.3
2014-Apr-15 18:31 192 4 gusting 7 28.9
2014-Apr-15 18:21 203 4 gusting 6 28.9
2014-Apr-15 18:11 187 4 gusting 7 28.9
2014-Apr-15 18:01 155 2 gusting 7 28.9
2014-Apr-15 17:42 174 2 gusting 7 28.9
2014-Apr-15 17:32 169 5 gusting 8 28.9
2014-Apr-15 17:22 199 4 gusting 4 29.4
2014-Apr-15 17:12 146 2 gusting 2 29.4
2014-Apr-15 17:02 182 6 gusting 6 29.4
2014-Apr-15 16:13 161 7 gusting 7 28.9
2014-Apr-15 15:53 169 2 gusting 3 28.3
2014-Apr-15 15:13 142 2 gusting 5 28.3
2014-Apr-15 14:53 155 6 gusting 7 27.8
2014-Apr-15 14:14 127 0 gusting 6 27.8
2014-Apr-15 14:04 128 4 gusting 9 27.8
2014-Apr-15 13:54 121 1 gusting 7 27.8
2014-Apr-15 13:44 131 5 gusting 9 27.2
2014-Apr-15 13:14 133 2 gusting 4 26.7
2014-Apr-15 12:45 178 6 gusting 7 26.7
2014-Apr-15 12:35 135 4 gusting 7 26.1
2014-Apr-15 12:15 126 5 gusting 6 26.1
2014-Apr-15 11:55 138 6 gusting 6 26.1
2014-Apr-15 11:45 155 0 gusting 6 25.6
2014-Apr-15 11:36 140 3 gusting 6 25.6
2014-Apr-15 11:26 138 2 gusting 6 25.6
2014-Apr-15 11:16 140 2 gusting 7 25.6
2014-Apr-15 11:06 123 1 gusting 7 25.6
2014-Apr-15 10:56 114 5 gusting 5 25.6
2014-Apr-15 09:37 123 2 gusting 6 25.6
2014-Apr-15 09:17 098 1 gusting 6 25.6
2014-Apr-15 08:57 123 1 gusting 8 25.6
2014-Apr-15 08:47 078 3 gusting 6 25.6
2014-Apr-15 08:27 146 6 gusting 6 25.6
2014-Apr-15 08:18 124 4 gusting 7 25.6
2014-Apr-15 08:08 151 4 gusting 8 25.6
2014-Apr-15 07:58 137 1 gusting 6 25.6
2014-Apr-15 07:48 136 2 gusting 6 25.6
2014-Apr-15 07:08 142 5 gusting 6 25.6
2014-Apr-15 06:58 137 4 gusting 6 25.6
2014-Apr-15 06:49 113 5 gusting 7 25.6
2014-Apr-15 06:19 123 2 gusting 6 25.6
2014-Apr-15 05:59 144 3 gusting 6 25.6
2014-Apr-15 05:39 148 4 gusting 7 25.6
2014-Apr-15 05:29 138 3 gusting 8 25.6
2014-Apr-15 05:19 119 1 gusting 5 25.6
2014-Apr-15 05:10 103 2 gusting 7 25.6
2014-Apr-15 05:00 138 2 gusting 6 25.6
2014-Apr-15 04:50 115 1 gusting 6 25.6
2014-Apr-15 04:40 116 2 gusting 6 25.6
2014-Apr-15 04:30 130 1 gusting 5 25.6
2014-Apr-15 04:20 145 1 gusting 5 25.6
2014-Apr-15 04:10 138 3 gusting 5 25.6
2014-Apr-15 04:00 104 2 gusting 6 25.6
2014-Apr-15 03:50 107 25.6
2014-Apr-15 03:41 107 2 gusting 8 25.6
2014-Apr-15 03:31 113 25.6
2014-Apr-15 03:11 139 2 gusting 6 25.6
2014-Apr-15 03:01 126 1 gusting 5 25.6
2014-Apr-15 02:51 159 1 gusting 6 25.6
2014-Apr-15 02:41 082 5 gusting 5 25.6
2014-Apr-15 02:21 082 0 gusting 6 25.6
2014-Apr-15 02:11 096 2 gusting 3 25.6
2014-Apr-15 02:02 106 25.6
2014-Apr-15 01:52 090 1 gusting 3 26.1
2014-Apr-15 01:12 132 26.1
2014-Apr-15 00:52 094 26.1
2014-Apr-15 00:42 117 26.1
2014-Apr-15 00:32 102 26.1
2014-Apr-15 00:23 119 2 gusting 2 26.1
2014-Apr-15 00:13 084 26.7